Home   Weather   Burlington   Past weeks

Flag for Canada Past Weather in Burlington, Ontario, Canada — Yesterday and Last 2 Weeks

Now
37 °F

Chilly.


Feels Like: 27 °F
Forecast: 34 / 37 °F
Wind: 18 mph from Northeast

Location: Burlington Piers

Current Time: Jan 17, 2017 at 8:21:30 am

Latest Report: Jan 17, 2017 at 7:00 am


Visibility: N/A

Pressure: 30.04 "Hg

Humidity: 81%

Dew Point: 31 °F

Location of BurlingtonLocation

Past Weather in Burlington — Graph

°F

Burlington Temperature Yesterday

Maximum temperature yesterday: 37 °F (at 6:00 pm)
Minimum temperature yesterday: 26 °F (at 4:00 am)
Average temperature yesterday: 31 °F

High & Low Weather Summary for the Past Weeks

 TemperatureHumidityPressure
High54 °F (Jan 12, 5:00 am)100% (Jan 3, 3:00 pm)30.80 "Hg (Jan 3, 3:00 pm)
Low11 °F (Jan 7, 7:00 am)41% (Jan 8, 2:00 pm)29.45 "Hg (Jan 4, 2:00 am)
Average28 °F71%30.16 "Hg
* Reported Jan 2 7:00 am — Jan 17 7:00 am, Burlington, Weather by CustomWeather, © 2017

Note: Actual official high and low records may vary slightly from our data, if they occured in-between our weather recording intervals... More about our weather records

Advertising

Burlington Weather History for the Previous 24 Hours

Scroll right to see more
 ConditionsComfort  
Time TempWeatherWind HumidityBarometerVisibility
7:00 am
Tue, Jan 17
37 °FChilly.18 mph81%30.04 "HgN/A
6:00 am37 °FChilly.14 mph81%30.09 "HgN/A
5:00 am36 °FChilly.8 mph89%30.12 "HgN/A
4:00 am35 °FChilly.6 mph84%30.15 "HgN/A
3:00 am34 °FChilly.5 mph85%30.16 "HgN/A
2:00 am34 °FChilly.2 mph84%30.18 "HgN/A
1:00 am34 °FChilly.1 mph82%30.19 "HgN/A
12:00 am34 °FChilly.2 mph79%30.21 "HgN/A
11:00 pm
Mon, Jan 16
35 °FChilly.3 mph77%30.23 "HgN/A
10:00 pm36 °FChilly.6 mph72%30.24 "HgN/A
9:00 pm36 °FChilly.No wind67%30.26 "HgN/A
8:00 pm37 °FChilly.No wind67%30.27 "HgN/A
7:00 pm35 °FChilly.1 mph71%30.27 "HgN/A
6:00 pm37 °FChilly.5 mph64%30.27 "HgN/A
5:00 pm36 °FChilly.6 mph61%30.28 "HgN/A
4:00 pm36 °FChilly.3 mph62%30.28 "HgN/A
3:00 pm35 °FChilly.5 mph65%30.29 "HgN/A
2:00 pm35 °FChilly.5 mph64%30.30 "HgN/A
1:00 pm34 °FChilly.6 mph65%30.32 "HgN/A
12:00 pm31 °FChilly.7 mph72%30.34 "HgN/A
11:00 am33 °FChilly.7 mph66%30.37 "HgN/A
10:00 am28 °FChilly.7 mph77%30.38 "HgN/A
9:00 am27 °FChilly.7 mph76%30.38 "HgN/A
8:00 am27 °FChilly.6 mph79%30.37 "HgN/A
Weather by CustomWeather, © 2017

See weather overviewHow to use our weather pages